User: anonymous   Login
Location: Fremont
(37.5480°N, 121.9880°W)
Time: 12:12:51
(UTC-07:00)
Language:

Cosmos 1844 Rocket - Orbit

View from above orbital plane
View from above orbital plane
View from above satellite
View from above satellite

Ground track
Ground track

The orbit data is extracted from the following two-line orbital elements,

1 17974U 87041B   15239.54450565 -.00000200  00000-0 -75321-4 0  9998
2 17974 071.0065 219.5937 0015630 314.2918 183.9858 14.17176012463227
Epoch (UTC): 27 August 2015 13:04:05
Eccentricity: 0.0015630
inclination: 71.0065°
perigee height: 823 km
apogee height: 846 km
right ascension of ascending node: 219.5937°
argument of perigee: 314.2918°
revolutions per day: 14.17176012
mean anomaly at epoch: 183.9858°
orbit number at epoch: 46322

The dashed part of the orbit path shows where the satellite is in the earth's shadow,  

DLR